Retour au catalogue

STARLINK-30429

ActifCommunicationsVLEO
NORAD 57876·PAYLOAD·🇺🇸 United States

Lancé Sep 16, 2023 depuis Cape Canaveral Space Force Station

Loading…

Prochains Passages (prochaines 24 heures)

TLE

FraisSource: CelesTrak SupGP

Époque: Sep 14, 2026, 21:54 UTC

1 57876C 23144N   26257.91298611  .00003077  00000+0  11145-3 0  2574
2 57876  43.0015 296.8622 0001784 266.3049  81.2731 15.27571913    17

Suivez STARLINK-30429 en temps réel avec AllMySat

Download on the App Store